DW4892 Weather Reports


time (UTC)temp
C
wind
direction
speed
KPH
gust
KPH
rain 1hr
cm
rain 24hr
cm
rain mn
cm
humidity
%
barometer
mb
20260507030021 0 196 0.0 1.6 0.00 1.83 1.83 87 1018.1
20260507024523 0 204 0.0 3.2 0.00 1.83 1.83 86 1017.8
20260507023030 0 214 0.0 4.8 0.00 1.83 1.83 85 1017.8
20260507021524 1 200 0.0 4.8 0.00 1.83 1.83 85 1017.7
20260507020036 1 190 0.0 1.6 0.00 1.83 1.83 85 1017.9
20260507014559 1 185 0.0 3.2 0.03 1.83 1.83 83 1018.0
20260507013026 1 180 0.0 3.2 0.03 1.83 1.83 81 1018.0
20260507011535 1 190 1.6 4.8 0.05 1.83 1.83 80 1018.2
20260507010018 1 176 1.6 4.8 0.08 1.83 1.83 80 1018.3
20260507004517 1 190 1.6 6.4 0.08 1.80 1.80 79 1018.4
20260507003030 2 196 1.6 6.4 0.10 1.80 1.80 78 1018.5
20260507001555 2 197 1.6 6.4 0.15 1.78 1.78 77 1018.3
20260507000025 2 185 3.2 6.4 0.18 1.75 1.75 77 1018.5
20260506234518 2 69 1.6 6.4 0.18 1.75 1.73 78 1018.3
20260506233011 2 129 1.6 6.4 0.20 1.70 1.68 77 1018.5
20260506231530 2 84 3.2 6.4 0.20 1.65 1.63 78 1018.7
20260506230033 2 62 3.2 6.4 0.20 1.60 1.57 82 1018.5
20260506224521 2 57 3.2 6.4 0.23 1.68 1.55 81 1018.7
20260506223017 1 190 1.6 3.2 0.20 1.60 1.45 81 1018.9
20260506221530 1 171 1.6 4.8 0.20 1.55 1.42 84 1019.0
20260506220034 1 160 3.2 6.4 0.23 1.50 1.37 85 1019.2
20260506214523 1 325 1.6 4.8 0.25 1.50 1.32 82 1019.4
20260506213018 1 38 1.6 6.4 0.28 1.42 1.27 84 1019.4
20260506211520 2 340 1.6 4.8 0.33 1.40 1.22 82 1019.5
20260506210046 1 343 1.6 4.8 0.41 1.32 1.14 83 1019.7
20260506204521 1 322 0.0 4.8 0.48 1.27 1.07 84 1019.7
20260506203020 1 50 1.6 4.8 0.48 1.17 0.97 85 1019.7
20260506201520 1 37 3.2 6.4 0.51 1.09 0.89 84 1019.9
20260506200014 2 55 1.6 8.0 0.38 0.94 0.71 83 1019.9
20260506194534 2 56 3.2 11.3 0.28 0.86 0.58 84 1019.9
20260506193033 2 74 3.2 11.3 0.20 0.76 0.48 86 1020.0
20260506191521 1 30 6.4 14.5 0.13 0.66 0.38 88 1019.9
20260506190014 0 86 6.4 14.5 0.13 0.64 0.36 90 1020.1
20260506184537 0 54 6.4 14.5 0.10 0.64 0.30 89 1020.0
20260506183025 0 47 4.8 12.9 0.10 0.61 0.28 89 1020.0
20260506181534 0 126 3.2 8.0 0.10 0.58 0.25 87 1020.0
20260506180020 1 25 1.6 6.4 0.18 0.56 0.23 88 1019.9
20260506174516 1 36 3.2 9.7 0.20 0.58 0.20 89 1019.8
20260506173031 1 319 3.2 11.3 0.18 0.56 0.18 88 1019.8
20260506171534 1 329 1.6 8.0 0.13 0.51 0.13 88 1019.6
20260506170029 1 354 1.6 9.7 0.03 0.41 0.03 89 1019.4
20260506164538 1 89 1.6 8.0 0.00 0.41 0.00 89 1018.9
20260506163017 0 303 3.2 6.4 0.00 0.41 0.00 91 1018.9
20260506161531 0 353 3.2 9.7 0.00 0.41 0.00 91 1018.7
20260506160025 0 350 0.0 4.8 0.00 0.41 0.00 91 1018.4
20260506154523 0 350 0.0 1.6 0.00 0.41 0.00 92 1018.4
20260506153018 0 350 0.0 0.0 0.00 0.41 0.00 92 1018.3
20260506151516 0 350 0.0 0.0 0.00 0.41 0.00 91 1018.1
20260506150011 0 350 0.0 0.0 0.00 0.41 0.00 92 1017.8
20260506144529 0 350 0.0 0.0 0.00 0.48 0.00 92 1017.9
20260506143027 0 350 0.0 0.0 0.00 0.48 0.00 93 1017.8
20260506141529 0 350 0.0 0.0 0.00 0.48 0.00 94 1017.6
20260506140015 -1 350 0.0 0.0 0.00 0.48 0.00 94 1017.6
20260506134513 -1 350 0.0 0.0 0.00 0.51 0.00 94 1017.4
20260506133028 -1 350 0.0 0.0 0.00 0.51 0.00 94 1017.2
20260506131527 -1 350 0.0 0.0 0.00 0.51 0.00 94 1017.0
20260506130021 -1 350 0.0 0.0 0.00 0.51 0.00 94 1016.4
20260506124518 -2 350 0.0 0.0 0.00 0.64 0.00 94 1016.5
20260506123015 -2 350 0.0 0.0 0.00 0.64 0.00 94 1016.2
20260506121530 -2 350 0.0 0.0 0.00 0.64 0.00 94 1016.2
20260506120046 -2 350 0.0 0.0 0.00 0.64 0.00 94 1015.8
20260506114520 -2 350 0.0 0.0 0.00 0.76 0.00 94 1015.7
20260506113056 -2 350 0.0 0.0 0.00 0.76 0.00 94 1015.1
20260506111529 -2 350 0.0 0.0 0.00 0.76 0.00 94 1015.3
20260506110025 -2 350 0.0 0.0 0.00 0.76 0.00 94 1015.3
20260506104531 -2 350 0.0 0.0 0.00 0.76 0.00 94 1015.1
20260506103034 -1 350 0.0 0.0 0.00 0.76 0.00 94 1014.9
20260506101531 -1 350 0.0 0.0 0.00 0.76 0.00 94 1014.8
20260506100023 -1 350 0.0 0.0 0.00 0.76 0.00 94 1014.6
20260506094523 -1 350 0.0 0.0 0.00 0.76 0.00 94 1014.6
20260506093058 -1 350 0.0 0.0 0.00 0.76 0.00 94 1014.3
20260506091530 -1 350 0.0 0.0 0.00 0.76 0.00 94 1014.3
20260506090023 -1 350 0.0 0.0 0.00 0.76 0.00 94 1014.3
20260506084536 -1 350 0.0 0.0 0.00 0.76 0.00 94 1014.3
20260506083058 -1 350 0.0 0.0 0.00 0.76 0.00 94 1014.4
20260506081536 -1 350 0.0 0.0 0.00 0.76 0.00 94 1014.3
20260506073029 -1 350 0.0 0.0 0.00 0.76 0.00 94 1014.1
20260506071529 -1 350 0.0 0.0 0.00 0.76 0.00 94 1013.8
20260506061529 -1 350 0.0 0.0 0.00 0.76 0.00 94 1013.3
20260506044521 -1 197 0.0 0.0 0.00 0.94 0.76 94 1012.4
20260506043018 0 354 0.0 0.0 0.00 0.94 0.76 94 1012.3
20260506041532 0 354 0.0 0.0 0.00 0.94 0.76 94 1012.3
20260506040032 0 322 0.0 0.0 0.00 0.94 0.76 94 1012.2
20260506034526 0 28 0.0 0.0 0.00 1.02 0.76 94 1012.0
20260506033019 0 6 0.0 0.0 0.00 1.02 0.76 94 1011.5
20260506031514 0 6 0.0 3.2 0.00 1.02 0.76 94 1011.2